Regional Weather Roundup
Issued by NWS

Home | Current Version | Previous Version | Text Only | Print | Product List | Glossary On
Versions: 1 2 3 4 5 6 7 8 9 10 11 12 13 14 15 16 17 18 19 20 21 22 23 24 25 26 27 28
000
ASUS44 KBMX 310910
RWRAL

ALABAMA REGIONAL WEATHER ROUNDUP
NATIONAL WEATHER SERVICE BIRMINGHAM AL
400 AM CDT FRI OCT 31 2014

NOTE: "FAIR" INDICATES FEW OR NO CLOUDS BELOW 12,000 FEET
WITH NO SIGNIFICANT WEATHER AND/OR OBSTRUCTIONS TO VISIBILITY.

THE REMARK "TC" DENOTES TEMPERATURE IN DEGREES CELSIUS.

ALZ001>011-014-016>018-020-311000-
NORTH ALABAMA

CITY           SKY/WX    TMP DP  RH WIND       PRES   REMARKS
MUSCLE SHOALS  CLOUDY    50  46  86 W12       30.02R
HUNTSVILLE     CLEAR     44  41  89 CALM      29.98F
DECATUR        CLEAR     43  40  89 CALM      30.00S
HALEYVILLE     FAIR      43  42  96 VRB7      30.04R
GADSDEN        MOCLDY    43  37  81 CALM      29.99S
$$

ALZ012-013-022-023-030>036-040>044-311000-
WEST CENTRAL ALABAMA

CITY           SKY/WX    TMP DP  RH WIND       PRES   REMARKS
TUSCALOOSA     CLEAR     43  41  93 CALM      30.00F
$$

ALZ015-024>027-033>036-040>044-311000-
CENTRAL ALABAMA

CITY           SKY/WX    TMP DP  RH WIND       PRES   REMARKS
BIRMINGHAM     PTCLDY    45  42  89 CALM      30.01S
MONTGOMERY     CLEAR     44  40  85 CALM      29.98F
SHELBY CO ARPT PTCLDY    46  43  89 CALM      29.99S
MAXWELL AFB    CLEAR     43 N/A N/A CALM      29.97F
GREENVILLE     FAIR      44  39  82 N5        29.97F
$$

ALZ019-021-028-029-037-038-045>048-311000-
EAST CENTRAL ALABAMA

CITY           SKY/WX    TMP DP  RH WIND       PRES   REMARKS
ANNISTON       MOCLDY    42  40  92 CALM      29.98F
ALEXANDER CITY PTCLDY    42  37  85 CALM      29.97F
AUBURN         CLEAR     43  36  75 N6        29.98S
$$

ALZ051>064-311000-
SOUTHWEST ALABAMA

CITY           SKY/WX    TMP DP  RH WIND       PRES   REMARKS
MOBILE         CLEAR     45  41  86 NW3       30.02S
BROOKLEY FIELD CLEAR     51  40  65 NW7       30.02F
EVERGREEN      CLEAR     43  41  93 CALM      29.99S
$$

ALZ049-050-065>069-311000-
SOUTHEAST ALABAMA

CITY           SKY/WX    TMP DP  RH WIND       PRES   REMARKS
DOTHAN         CLEAR     45  40  82 CALM      29.99S
OZARK          CLEAR     45  40  83 W1        29.96F
TROY           CLEAR     40  38  93 CALM      29.97F
EUFAULA        FAIR      39  38  96 CALM      29.95S
$$



USA.gov is the U.S. government's official web portal to all federal, state and local government web resources and services.